Wind_Speed
28 28 30 32 35 37 36 36 35 35 35 34 35 34 34 34 34 34 34 32 31 30 29 29 31 34 36 38 41 44 45 43 42 40 38 38 37 36
27 26 27 29 32 34 35 36 36 36 36 36 35 34 34 33 33 32 32 32 31 29 27 27 26 28 33 37 40 42 43 43 41 40 40 40 39 37
27 26 26 28 30 32 34 35 36 37 36 36 35 34 34 33 31 30 30 30 29 28 27 26 26 26 30 34 37 40 43 44 44 43 41 42 42 42
28 27 26 26 28 30 32 33 34 34 35 35 35 34 32 30 29 27 28 28 27 28 28 27 26 27 29 32 36 39 43 46 47 46 45 45 45 44
29 27 26 24 25 26 28 28 29 31 32 32 32 32 31 29 28 27 26 26 27 27 27 25 25 24 24 25 27 30 34 37 40 42 42 42 44 44
28 27 24 22 21 21 23 23 24 25 26 28 29 30 29 27 26 26 26 25 23 22 21 20 19 18 18 18 19 21 23 25 28 31 34 36 39 41
27 25 22 19 18 18 19 20 23 25 26 28 29 29 29 27 25 25 23 20 18 17 16 16 16 16 17 18 19 21 22 24 26 28 30 33 35 38
26 23 20 19 17 18 19 20 23 27 29 31 32 30 29 25 24 22 20 18 16 16 15 15 16 17 19 20 22 23 24 26 28 30 31 33 35 37
26 23 20 19 18 18 19 21 23 25 29 32 32 29 26 23 21 19 18 17 16 15 15 16 17 18 19 20 21 23 24 26 28 30 32 34 37 39
27 24 21 20 19 19 20 21 23 25 27 29 28 24 21 19 18 18 17 16 15 15 15 15 16 17 18 19 21 22 24 26 28 31 33 36 38 41
29 25 23 21 20 20 20 21 22 23 24 23 21 20 19 18 17 16 15 14 13 13 13 14 15 15 16 18 20 21 23 25 27 30 33 36 39 42
30 27 24 22 21 20 20 21 21 21 21 20 19 18 18 17 16 14 13 12 11 11 11 12 12 13 14 15 17 19 21 23 26 29 33 36 39 43
31 29 25 23 21 21 21 22 22 21 21 20 19 19 18 16 15 13 11 10 10 10 10 10 10 11 11 13 15 18 20 23 26 29 32 35 38 41
31 28 25 23 22 22 23 23 23 23 22 21 20 18 17 16 14 13 11 10 9 9 9 9 10 10 11 13 15 17 20 23 26 28 30 32 34 35
31 28 24 22 22 24 24 24 24 23 22 21 19 18 16 15 14 13 12 11 10 10 11 11 11 11 12 13 15 17 19 22 25 28 30 31 32 33
30 27 24 22 22 24 25 25 24 24 22 20 19 17 16 14 13 13 12 12 12 13 13 13 13 12 12 13 15 17 19 22 25 28 30 31 32 33
28 26 24 22 22 23 22 22 22 22 21 19 17 16 15 14 14 13 13 14 14 15 15 15 14 13 12 13 15 16 19 21 24 26 28 30 32 32
28 27 25 24 23 23 22 21 21 20 19 18 17 16 15 15 15 15 15 16 17 18 18 17 16 14 13 13 15 17 19 21 24 26 28 31 32 34
28 28 27 26 25 24 22 21 20 20 19 18 18 17 17 16 16 17 18 19 20 20 19 18 17 16 15 16 17 18 20 22 24 27 29 32 34 36
30 30 29 28 27 25 23 22 21 20 20 19 19 18 18 17 18 19 20 21 22 21 20 19 19 19 19 19 18 19 20 22 24 26 30 33 35 38
31 31 29 28 27 25 24 23 21 20 20 20 19 18 18 19 20 21 22 24 24 23 23 22 22 23 23 21 20 19 20 22 24 26 29 32 35 38
33 31 29 27 26 25 23 21 20 20 20 20 19 19 19 19 20 22 24 25 26 25 25 25 25 24 23 22 21 21 22 23 25 27 29 33 36 39
32 30 28 26 25 23 22 20 19 19 19 19 19 19 19 20 21 22 24 25 25 25 25 25 24 23 23 23 23 23 24 26 28 31 33 34 37 40
Wind_Direction
294 282 272 264 259 256 256 258 260 260 261 261 261 261 259 257 256 254 252 253 255 256 258 259 259 254 244 237 231 227 227 230 233 238 243 247 250 250
302 290 278 268 261 256 256 257 257 257 258 259 258 256 254 253 251 250 248 247 251 255 257 260 261 257 247 235 229 227 226 228 232 237 242 245 248 250
306 296 283 272 263 258 256 255 255 256 256 255 254 251 249 249 247 246 244 246 250 255 259 260 259 255 248 240 236 233 231 231 233 238 244 247 250 252
307 300 290 276 265 258 254 254 254 253 252 251 249 245 243 241 239 241 243 247 252 256 258 258 258 255 250 246 243 240 239 237 238 240 244 248 252 255
306 302 295 282 268 258 253 251 250 249 247 244 242 240 237 234 234 239 244 249 255 256 256 256 255 251 249 249 248 247 246 245 246 247 247 250 253 255
302 300 296 286 271 258 251 247 246 243 239 237 235 235 229 229 233 243 247 250 252 254 252 251 248 246 246 249 250 252 253 254 255 256 256 256 257 258
297 297 293 285 272 261 254 249 247 241 235 233 232 233 229 229 235 242 245 244 245 244 244 244 244 246 248 251 253 254 255 257 258 258 259 259 260 261
289 290 288 280 269 261 252 248 248 240 233 230 229 228 229 230 233 235 236 235 236 239 242 246 248 249 250 251 253 255 257 259 261 262 263 263 264 263
278 280 278 276 268 263 256 252 249 243 236 230 225 225 226 225 225 227 231 234 236 240 243 247 249 251 254 257 261 265 267 269 271 272 272 272 271 269
268 269 269 266 262 259 255 252 247 244 238 229 222 218 215 215 219 223 226 229 233 237 242 249 253 258 263 269 272 275 277 278 279 279 278 277 276 275
258 259 260 259 256 253 251 248 243 237 230 223 216 212 210 210 212 216 220 225 231 238 244 252 259 266 272 277 280 282 283 284 284 284 284 283 281 280
250 251 252 252 249 247 244 241 236 229 223 217 211 207 203 203 205 210 217 227 236 244 252 261 268 275 281 285 288 289 290 290 291 291 290 288 286 284
244 245 246 246 242 239 235 230 226 222 217 210 203 199 198 199 202 208 217 226 236 248 259 267 275 281 287 292 296 298 299 299 299 298 297 295 293 290
239 241 243 240 236 231 227 223 221 217 209 200 196 195 197 200 205 210 214 222 235 247 257 265 273 281 289 296 301 305 308 310 311 312 312 311 309 305
233 236 236 234 229 225 220 217 216 209 202 195 195 196 199 204 208 211 216 225 236 246 257 264 271 281 291 302 309 315 321 324 326 327 327 326 324 320
225 227 227 226 223 220 215 211 207 200 194 192 194 198 204 209 213 218 225 233 240 249 258 263 271 281 292 304 313 321 327 331 332 333 334 332 330 326
217 218 218 216 214 206 201 198 194 189 188 192 197 203 209 215 220 226 234 240 246 251 256 261 267 274 287 302 313 320 325 329 332 333 334 334 332 330
208 208 207 204 198 191 186 185 186 188 193 198 203 208 213 218 225 232 240 246 249 251 255 260 265 272 284 299 308 316 322 326 329 331 332 332 332 332
200 198 196 194 190 186 186 188 192 196 200 203 206 210 216 223 231 239 245 248 251 253 257 263 268 275 285 298 307 313 320 325 329 331 332 332 332 331
193 191 190 189 188 189 191 194 197 200 203 205 209 215 222 230 237 243 247 249 252 256 263 270 276 284 292 299 305 311 317 323 326 329 332 332 332 332
187 186 186 186 187 188 191 194 199 202 205 209 214 221 229 236 242 247 251 253 256 262 271 278 283 288 292 296 300 304 312 318 322 326 329 331 333 333
183 182 183 183 184 186 190 196 202 206 210 214 220 227 234 241 247 252 256 259 263 269 276 281 285 287 288 289 293 298 304 310 315 319 323 327 331 333
181 181 181 183 185 189 195 201 206 211 215 220 226 232 240 246 253 258 262 264 268 274 279 282 283 283 284 285 290 296 302 307 312 316 319 323 327 331
Height
5738 5736 5735 5735 5737 5739 5742 5744 5746 5747 5748 5749 5750 5752 5752 5753 5754 5756 5757 5759 5760 5762 5763 5764 5764 5765 5767 5769 5773 5777 5782 5787 5792 5795 5798 5800 5801 5803
5731 5729 5727 5727 5728 5730 5732 5734 5736 5738 5740 5741 5742 5743 5744 5745 5746 5748 5749 5752 5754 5755 5756 5758 5758 5759 5760 5762 5765 5769 5773 5777 5782 5786 5789 5791 5792 5793
5725 5722 5720 5719 5719 5720 5722 5724 5726 5728 5730 5732 5733 5735 5736 5737 5739 5741 5743 5745 5747 5748 5750 5751 5752 5753 5755 5757 5759 5763 5766 5769 5773 5777 5779 5782 5783 5785
5719 5716 5713 5711 5710 5711 5713 5715 5717 5719 5721 5723 5724 5726 5728 5730 5732 5734 5737 5739 5741 5742 5744 5745 5746 5747 5749 5751 5753 5756 5759 5762 5765 5768 5771 5773 5775 5775
5713 5709 5706 5704 5703 5703 5704 5706 5708 5710 5712 5714 5716 5719 5721 5723 5726 5729 5731 5733 5734 5736 5737 5738 5739 5741 5743 5745 5747 5749 5752 5755 5757 5759 5761 5763 5765 5767
5707 5703 5700 5697 5696 5697 5698 5700 5701 5703 5705 5707 5710 5712 5714 5717 5720 5723 5725 5727 5728 5730 5731 5733 5734 5736 5738 5740 5742 5744 5746 5748 5750 5751 5753 5755 5756 5758
5701 5697 5694 5692 5691 5691 5692 5694 5695 5697 5699 5701 5704 5707 5709 5712 5715 5718 5720 5721 5723 5725 5727 5729 5730 5732 5734 5736 5738 5739 5741 5742 5743 5744 5745 5747 5748 5749
5694 5691 5689 5687 5686 5687 5687 5688 5690 5692 5693 5695 5698 5701 5704 5706 5710 5713 5715 5718 5719 5722 5723 5725 5727 5728 5729 5730 5731 5733 5734 5735 5736 5737 5737 5738 5738 5739
5687 5685 5683 5682 5682 5682 5683 5684 5685 5687 5689 5691 5692 5695 5698 5701 5705 5708 5711 5714 5716 5717 5719 5720 5722 5722 5723 5724 5725 5726 5727 5728 5728 5728 5728 5728 5728 5728
5679 5678 5677 5677 5677 5678 5679 5680 5681 5682 5684 5685 5687 5690 5694 5698 5702 5705 5707 5710 5712 5714 5715 5716 5717 5717 5718 5718 5719 5720 5720 5720 5720 5719 5718 5718 5717 5716
5671 5671 5670 5671 5672 5673 5674 5675 5676 5678 5679 5681 5683 5686 5690 5694 5698 5701 5704 5706 5708 5710 5711 5712 5712 5713 5713 5713 5713 5713 5713 5712 5711 5710 5709 5707 5706 5704
5661 5662 5663 5664 5666 5667 5669 5670 5672 5674 5676 5678 5681 5684 5688 5691 5695 5698 5700 5702 5704 5705 5706 5708 5708 5708 5708 5708 5708 5707 5707 5706 5705 5703 5700 5698 5695 5692
5651 5653 5655 5657 5659 5661 5663 5665 5668 5670 5672 5675 5678 5682 5685 5689 5692 5694 5697 5699 5701 5702 5703 5704 5704 5704 5705 5704 5703 5702 5701 5699 5697 5694 5691 5687 5682 5678
5642 5645 5647 5650 5652 5655 5657 5660 5663 5666 5669 5672 5675 5679 5683 5686 5689 5691 5693 5695 5697 5698 5699 5700 5701 5701 5701 5700 5699 5697 5694 5692 5688 5684 5680 5675 5670 5665
5633 5637 5640 5643 5646 5649 5652 5655 5658 5662 5665 5669 5673 5677 5680 5683 5686 5688 5691 5692 5694 5695 5696 5696 5697 5696 5696 5695 5693 5691 5688 5684 5680 5675 5670 5665 5659 5654
5625 5629 5633 5637 5640 5643 5646 5650 5654 5658 5662 5667 5671 5674 5677 5680 5683 5685 5688 5689 5691 5691 5692 5692 5692 5692 5691 5689 5687 5684 5681 5677 5673 5668 5663 5658 5652 5646
5617 5622 5627 5631 5635 5639 5642 5646 5651 5656 5660 5665 5668 5671 5674 5677 5680 5682 5684 5686 5687 5687 5688 5688 5688 5687 5686 5684 5682 5679 5675 5672 5668 5663 5658 5653 5647 5641
5610 5616 5622 5627 5632 5636 5640 5645 5650 5654 5658 5662 5665 5668 5671 5674 5677 5679 5680 5681 5682 5683 5683 5683 5683 5682 5681 5679 5676 5673 5670 5666 5662 5657 5652 5647 5641 5635
5605 5612 5618 5624 5629 5634 5639 5644 5648 5652 5656 5659 5663 5666 5668 5671 5673 5675 5676 5677 5678 5678 5679 5678 5678 5677 5675 5673 5670 5667 5663 5659 5655 5651 5646 5641 5635 5628
5601 5609 5616 5622 5627 5632 5637 5642 5646 5650 5653 5656 5659 5662 5665 5667 5669 5670 5672 5672 5673 5673 5673 5673 5672 5670 5669 5667 5664 5661 5657 5654 5650 5645 5640 5635 5628 5622
5599 5607 5614 5619 5625 5630 5635 5639 5643 5647 5650 5653 5656 5659 5661 5663 5665 5666 5667 5667 5668 5668 5667 5666 5665 5663 5661 5660 5657 5654 5652 5648 5644 5640 5635 5630 5623 5616
5597 5605 5611 5617 5622 5628 5632 5637 5641 5644 5647 5650 5653 5655 5657 5659 5660 5661 5662 5662 5662 5661 5660 5659 5657 5656 5654 5652 5650 5648 5645 5642 5638 5635 5630 5624 5618 5610
5598 5604 5610 5615 5620 5625 5630 5634 5638 5641 5644 5647 5649 5651 5653 5655 5656 5656 5656 5656 5655 5654 5653 5651 5649 5648 5646 5644 5642 5640 5637 5634 5630 5626 5622 5617 5611 5604